M I D A S
Marine Information and Data Acquisition System
Tripno 1327 of the Zeeleeuw from 2007-08-30 07:01:54 to 2007-08-30 14:55:45
Back to CruiseResearch ActivitiesStationsMapUnderway DataData graphs

EquipmentUnitsComments
TimeDGPSUTC
LatitudeDGPSDM.mWGS84
LongitudeDGPSDM.mWGS84
SpeedMeteo Stationm/sRelative wind speed
DirectionMeteo StationdegRelative wind direction
TemperatureMeteo Stationdeg CelciusAir temperature
PressureMeteo StationPaAtmospheric pressure
HumidityMeteo Station%Relative humidity
Missing or incorrect values are displayed as -999
Metereological data collected by the RV Zeeleeuw from 2007-08-30 07:01:30 to 2007-08-30 15:06:31
                                                                                    Next 1000 lines
Time Latitude Longitude Speed Direction Temperature Pressure Humidity
2007-08-30 07:01:40 51°13.601 2°56.096 -999 -999 -999 -999 -999
2007-08-30 07:01:45 51°13.602 2°56.094 -999 -999 -999 -999 -999
2007-08-30 07:01:50 51°13.602 2°56.091 -999 -999 -999 -999 -999
2007-08-30 07:01:55 51°13.604 2°56.087 -999 -999 -999 -999 -999
2007-08-30 07:02:00 51°13.605 2°56.082 -999 -999 -999 -999 -999
2007-08-30 07:02:05 51°13.606 2°56.077 -999 -999 -999 -999 -999
2007-08-30 07:02:10 51°13.608 2°56.07 -999 -999 -999 -999 -999
2007-08-30 07:02:15 51°13.61 2°56.064 -999 -999 -999 -999 -999
2007-08-30 07:02:20 51°13.612 2°56.056 -999 -999 -999 -999 -999
2007-08-30 07:02:25 51°13.615 2°56.049 -999 -999 -999 -999 -999
2007-08-30 07:02:30 51°13.617 2°56.04 -999 -999 -999 -999 -999
2007-08-30 07:02:35 51°13.62 2°56.032 -999 -999 -999 -999 -999
2007-08-30 07:02:40 51°13.622 2°56.023 -999 -999 -999 -999 -999
2007-08-30 07:02:45 51°13.625 2°56.014 -999 -999 -999 -999 -999
2007-08-30 07:02:50 51°13.628 2°56.005 -999 -999 -999 -999 -999
2007-08-30 07:02:55 51°13.631 2°55.995 -999 22 -999 -999 -999
2007-08-30 07:03:00 51°13.634 2°55.986 3.6 6 -999 -999 -999
2007-08-30 07:03:05 51°13.638 2°55.976 5.5 27 -999 -999 -999
2007-08-30 07:03:10 51°13.641 2°55.966 4.9 12 -999 -999 -999
2007-08-30 07:03:15 51°13.644 2°55.955 6.1 55 -999 -999 -999
2007-08-30 07:03:20 51°13.648 2°55.945 4.7 18 17.6 -999 60
2007-08-30 07:03:25 51°13.652 2°55.935 5.9 57 17.6 -999 60
2007-08-30 07:03:30 51°13.655 2°55.924 5.2 21 17.6 -999 68
2007-08-30 07:03:35 51°13.659 2°55.914 5.7 57 17.6 -999 68
2007-08-30 07:03:40 51°13.662 2°55.904 5.4 22 17.6 102000 68
2007-08-30 07:03:45 51°13.665 2°55.894 5.2 56 17.6 102000 68
2007-08-30 07:03:50 51°13.667 2°55.884 5.8 22 17.7 101990 68
2007-08-30 07:03:55 51°13.67 2°55.874 4.7 55 17.7 101990 68
2007-08-30 07:04:00 51°13.672 2°55.864 6 22 17.7 101990 68
2007-08-30 07:04:05 51°13.675 2°55.855 3.7 56 17.7 101990 68
2007-08-30 07:04:10 51°13.677 2°55.845 4.9 25 17.7 102000 67
2007-08-30 07:04:15 51°13.679 2°55.836 4.9 54 17.7 102000 67
2007-08-30 07:04:20 51°13.68 2°55.826 5.7 29 17.7 101990 67
2007-08-30 07:04:25 51°13.681 2°55.816 6.2 59 17.7 101990 67
2007-08-30 07:04:30 51°13.681 2°55.806 7.1 27 17.6 101990 67
2007-08-30 07:04:35 51°13.682 2°55.797 8.4 58 17.6 101990 67
2007-08-30 07:04:40 51°13.683 2°55.789 6.4 27 17.6 101990 66
2007-08-30 07:04:45 51°13.683 2°55.781 7 52 17.6 101990 66
2007-08-30 07:04:50 51°13.684 2°55.773 5.8 27 17.5 101990 67
2007-08-30 07:04:55 51°13.684 2°55.766 5.5 57 17.5 101990 67
2007-08-30 07:05:00 51°13.685 2°55.759 5.9 23 17.5 102000 67
2007-08-30 07:05:05 51°13.685 2°55.753 6.1 54 17.5 102000 67
2007-08-30 07:05:10 51°13.685 2°55.748 4.2 27 17.4 102000 67
2007-08-30 07:05:14 51°13.685 2°55.745 4.1 56 17.4 102000 67
2007-08-30 07:05:19 51°13.685 2°55.741 3.8 269 17.4 102000 67
2007-08-30 07:05:24 51°13.685 2°55.738 4.4 56 17.4 102000 67
2007-08-30 07:05:29 51°13.685 2°55.735 4.6 29 17.4 101990 68
2007-08-30 07:05:34 51°13.685 2°55.733 1.6 301 17.4 101990 68
2007-08-30 07:05:38 51°13.685 2°55.733 3 264 17.3 102000 68
2007-08-30 07:05:43 51°13.686 2°55.732 2.8 308 17.3 102000 68
2007-08-30 07:05:48 51°13.686 2°55.732 2.1 260 17.3 101990 68
2007-08-30 07:05:53 51°13.687 2°55.732 2.5 302 17.3 101990 68
2007-08-30 07:05:58 51°13.687 2°55.733 3.8 254 17.3 101990 68
2007-08-30 07:06:02 51°13.688 2°55.734 3.4 310 17.3 101990 68
2007-08-30 07:06:07 51°13.689 2°55.735 3.5 251 17.3 101990 68
2007-08-30 07:06:12 51°13.69 2°55.736 4.2 304 17.3 101990 68
2007-08-30 07:06:17 51°13.692 2°55.737 4.3 26 17.3 101990 68
2007-08-30 07:06:22 51°13.694 2°55.739 4 308 17.3 101990 68
2007-08-30 07:06:26 51°13.695 2°55.74 4.4 19 17.3 101990 69
2007-08-30 07:06:31 51°13.698 2°55.741 4.1 300 17.3 101990 69
2007-08-30 07:06:37 51°13.701 2°55.742 4.4 20 17.2 101990 69
2007-08-30 07:06:42 51°13.704 2°55.742 5.4 305 17.2 101990 69
2007-08-30 07:06:46 51°13.707 2°55.742 5.7 317 17.2 101990 69
2007-08-30 07:06:51 51°13.711 2°55.741 4.4 326 17.2 101990 69
2007-08-30 07:06:56 51°13.716 2°55.739 4.8 328 17.2 101980 69
2007-08-30 07:07:02 51°13.723 2°55.735 5.5 332 17.2 101980 69
2007-08-30 07:07:06 51°13.728 2°55.732 6.1 328 17.2 101980 69
2007-08-30 07:07:12 51°13.735 2°55.725 5.3 307 17.2 101980 69
2007-08-30 07:07:16 51°13.741 2°55.72 6.7 323 17.2 101980 69
2007-08-30 07:07:22 51°13.75 2°55.711 7.8 303 17.2 101980 69
2007-08-30 07:07:27 51°13.758 2°55.703 6.5 329 17.2 101980 69
2007-08-30 07:07:32 51°13.767 2°55.695 5.9 331 17.2 101980 69
2007-08-30 07:07:37 51°13.776 2°55.686 7.1 318 17.2 101980 69
2007-08-30 07:07:42 51°13.786 2°55.677 6.9 302 17.2 101980 69
2007-08-30 07:07:47 51°13.797 2°55.668 6.5 330 17.2 101970 69
2007-08-30 07:07:51 51°13.805 2°55.662 7.5 330 17.2 101970 69
2007-08-30 07:07:57 51°13.818 2°55.651 6.8 326 17.1 101980 69
2007-08-30 07:08:02 51°13.829 2°55.642 8.6 331 17.1 101980 69
2007-08-30 07:08:06 51°13.838 2°55.634 7.7 326 17.1 101970 69
2007-08-30 07:08:12 51°13.852 2°55.623 7.9 328 17.1 101970 69
2007-08-30 07:08:17 51°13.863 2°55.613 8.7 319 17.1 101980 69
2007-08-30 07:08:22 51°13.875 2°55.603 9.5 304 17.1 101980 69
2007-08-30 07:08:26 51°13.885 2°55.596 8.7 322 17.1 101980 70
2007-08-30 07:08:32 51°13.899 2°55.586 8.1 324 17.1 101980 70
2007-08-30 07:08:37 51°13.911 2°55.577 8.1 329 17.1 101980 70
2007-08-30 07:08:42 51°13.924 2°55.567 8.6 323 17.1 101980 70
2007-08-30 07:08:46 51°13.934 2°55.56 8.3 326 17.1 101970 70
2007-08-30 07:08:51 51°13.946 2°55.551 8.8 301 17.1 101970 70
2007-08-30 07:08:57 51°13.961 2°55.541 7.7 326 17.1 101970 70
2007-08-30 07:09:02 51°13.973 2°55.532 7.8 306 17.1 101970 70
2007-08-30 07:09:06 51°13.983 2°55.525 8.5 323 17.1 101970 71
2007-08-30 07:09:12 51°13.998 2°55.515 8.2 304 17.1 101970 71
2007-08-30 07:09:16 51°14.008 2°55.507 8.6 323 17.1 101980 70
2007-08-30 07:09:22 51°14.023 2°55.497 7.8 302 17.1 101980 70
2007-08-30 07:09:27 51°14.036 2°55.488 8.8 319 17.1 101970 70
2007-08-30 07:09:31 51°14.046 2°55.481 10.4 302 17.1 101970 70
2007-08-30 07:09:37 51°14.06 2°55.471 10.2 321 17.1 101970 70
2007-08-30 07:09:42 51°14.072 2°55.462 8.4 303 17.1 101970 70
2007-08-30 07:09:46 51°14.082 2°55.455 10.8 322 17.1 101980 71
2007-08-30 07:09:51 51°14.093 2°55.446 11.3 301 17.1 101980 71
2007-08-30 07:09:57 51°14.107 2°55.435 11.8 323 17.1 101970 72
2007-08-30 07:10:02 51°14.119 2°55.426 12.4 307 17.1 101970 72
2007-08-30 07:10:07 51°14.13 2°55.416 11.5 321 17.1 101960 72
2007-08-30 07:10:11 51°14.139 2°55.407 11.9 308 17.1 101960 72
2007-08-30 07:10:17 51°14.153 2°55.395 11.8 323 17.1 101960 72
2007-08-30 07:10:22 51°14.164 2°55.383 10.4 326 17.1 101960 72
2007-08-30 07:10:26 51°14.173 2°55.374 11.3 322 17.1 101970 71
2007-08-30 07:10:32 51°14.187 2°55.359 11.8 302 17.1 101970 71
2007-08-30 07:10:37 51°14.198 2°55.345 10.4 323 17 101960 71
2007-08-30 07:10:42 51°14.208 2°55.331 10.7 325 17 101960 71
2007-08-30 07:10:46 51°14.217 2°55.32 10.2 325 17 101960 71
2007-08-30 07:10:52 51°14.229 2°55.303 12.2 324 17 101960 71
2007-08-30 07:10:57 51°14.239 2°55.288 11.2 320 17 101960 72
2007-08-30 07:11:02 51°14.25 2°55.273 12.1 303 17 101960 72
2007-08-30 07:11:06 51°14.258 2°55.261 10.8 323 17 101970 72
2007-08-30 07:11:12 51°14.269 2°55.242 12.8 305 17 101970 72
2007-08-30 07:11:17 51°14.279 2°55.226 12.3 321 17 101970 73
2007-08-30 07:11:22 51°14.289 2°55.21 13 324 17 101970 73
2007-08-30 07:11:26 51°14.297 2°55.197 12.7 323 17 101960 73
2007-08-30 07:11:32 51°14.309 2°55.178 11.3 326 17 101960 73
2007-08-30 07:11:36 51°14.316 2°55.164 12.6 323 17 101960 73
2007-08-30 07:11:42 51°14.327 2°55.144 10.6 302 17 101960 73
2007-08-30 07:11:47 51°14.337 2°55.126 11.9 326 17 101960 74
2007-08-30 07:11:51 51°14.344 2°55.112 11.1 302 17 101960 74
2007-08-30 07:11:57 51°14.356 2°55.091 11.6 325 17.1 101950 74
2007-08-30 07:12:02 51°14.365 2°55.072 13.1 326 17.1 101950 74
2007-08-30 07:12:06 51°14.373 2°55.058 12.1 324 17.1 101960 74
2007-08-30 07:12:12 51°14.386 2°55.036 13 304 17.1 101960 74
2007-08-30 07:12:17 51°14.397 2°55.017 12.4 324 17.1 101950 74
2007-08-30 07:12:22 51°14.408 2°54.999 13.4 302 17.1 101950 74
2007-08-30 07:12:26 51°14.417 2°54.984 13.4 324 17 101950 74
2007-08-30 07:12:32 51°14.43 2°54.96 12.1 307 17 101950 74
2007-08-30 07:12:36 51°14.439 2°54.944 12.6 323 17 101950 73
2007-08-30 07:12:42 51°14.453 2°54.921 13.1 305 17 101950 73
2007-08-30 07:12:46 51°14.462 2°54.905 12.4 320 17 101950 73
2007-08-30 07:12:52 51°14.476 2°54.883 14 305 17 101950 73
2007-08-30 07:12:57 51°14.489 2°54.866 14.1 321 17 101950 74
2007-08-30 07:13:02 51°14.501 2°54.849 12.7 306 17 101950 74
2007-08-30 07:13:06 51°14.511 2°54.835 12.3 318 17.1 101950 74
2007-08-30 07:13:11 51°14.525 2°54.821 12.6 304 17.1 101950 74
2007-08-30 07:13:17 51°14.542 2°54.803 12.8 319 17 101940 74
2007-08-30 07:13:22 51°14.556 2°54.789 13.4 308 17 101940 74
2007-08-30 07:13:26 51°14.567 2°54.779 12.2 317 17 101950 73
2007-08-30 07:13:30 51°14.578 2°54.768 12 305 17 101950 73
2007-08-30 07:13:36 51°14.595 2°54.753 12.7 317 17 101950 73
2007-08-30 07:13:42 51°14.613 2°54.738 13.4 301 17 101950 73
2007-08-30 07:13:46 51°14.625 2°54.728 11.8 317 17 101950 73
2007-08-30 07:13:51 51°14.639 2°54.716 13.7 308 17 101950 73
2007-08-30 07:13:56 51°14.654 2°54.703 12.9 317 17 101950 73
2007-08-30 07:14:02 51°14.671 2°54.687 13.1 302 17 101950 73
2007-08-30 07:14:06 51°14.682 2°54.677 13.1 317 17 101950 73
2007-08-30 07:14:12 51°14.699 2°54.659 11.7 304 17 101950 73
2007-08-30 07:14:16 51°14.71 2°54.647 12.6 317 17 101940 73
2007-08-30 07:14:22 51°14.727 2°54.629 12.7 309 17 101940 73
2007-08-30 07:14:27 51°14.74 2°54.614 12.3 318 17 101950 74
2007-08-30 07:14:32 51°14.754 2°54.599 13.7 304 17 101950 74
2007-08-30 07:14:36 51°14.765 2°54.587 12.6 318 17.1 101950 75
2007-08-30 07:14:42 51°14.782 2°54.57 13.2 303 17.1 101950 75
2007-08-30 07:14:46 51°14.793 2°54.559 13.1 319 17.1 101950 75
2007-08-30 07:14:51 51°14.808 2°54.546 13 305 17.1 101950 75
2007-08-30 07:14:57 51°14.825 2°54.53 14.4 316 17.1 101950 75
2007-08-30 07:15:02 51°14.84 2°54.518 13 309 17.1 101950 75
2007-08-30 07:15:06 51°14.852 2°54.508 12.5 316 17.1 101940 75
2007-08-30 07:15:12 51°14.87 2°54.495 12.6 304 17.1 101940 75
2007-08-30 07:15:17 51°14.885 2°54.484 11.4 26 17 101940 74
2007-08-30 07:15:22 51°14.9 2°54.473 12.2 309 17 101940 74
2007-08-30 07:15:26 51°14.912 2°54.465 10.1 316 17 101950 74
2007-08-30 07:15:31 51°14.927 2°54.454 11.3 309 17 101950 74
2007-08-30 07:15:37 51°14.944 2°54.441 11.7 315 17 101960 74
2007-08-30 07:15:42 51°14.959 2°54.43 12.7 304 17 101960 74
2007-08-30 07:15:46 51°14.97 2°54.421 12.9 25 17 101960 74
2007-08-30 07:15:52 51°14.988 2°54.407 12.6 303 17 101960 74
2007-08-30 07:15:56 51°14.999 2°54.397 13.7 318 17.1 101960 75
2007-08-30 07:16:02 51°15.016 2°54.38 12.5 307 17.1 101960 75
2007-08-30 07:16:06 51°15.027 2°54.369 12 316 17 101950 74
2007-08-30 07:16:12 51°15.043 2°54.352 12.1 304 17 101950 74
2007-08-30 07:16:16 51°15.054 2°54.341 13.8 317 17 101960 75
2007-08-30 07:16:22 51°15.069 2°54.322 13.4 306 17 101960 75
2007-08-30 07:16:27 51°15.082 2°54.306 12.5 24 17 101950 76
2007-08-30 07:16:32 51°15.095 2°54.291 11.3 304 17 101950 76
2007-08-30 07:16:36 51°15.106 2°54.279 13 29 17 101950 76
2007-08-30 07:16:42 51°15.122 2°54.261 12.7 307 17 101950 76
2007-08-30 07:16:47 51°15.136 2°54.247 11.4 24 17 101950 75
2007-08-30 07:16:52 51°15.15 2°54.233 13 303 17 101950 75
2007-08-30 07:16:56 51°15.161 2°54.222 10.8 315 17 101950 76
2007-08-30 07:17:02 51°15.178 2°54.206 13.2 307 17 101950 76
2007-08-30 07:17:06 51°15.189 2°54.195 13.5 24 17 101960 76
2007-08-30 07:17:12 51°15.207 2°54.18 11.1 302 17 101960 76
2007-08-30 07:17:17 51°15.221 2°54.167 11.7 317 17 101960 76
2007-08-30 07:17:22 51°15.235 2°54.153 10.6 304 17 101960 76
2007-08-30 07:17:26 51°15.247 2°54.143 11.6 317 17 101960 76
2007-08-30 07:17:32 51°15.264 2°54.127 12.6 304 17 101960 76
2007-08-30 07:17:37 51°15.278 2°54.114 14.2 315 17.1 101950 77
2007-08-30 07:17:42 51°15.293 2°54.101 13.2 309 17.1 101950 77
2007-08-30 07:17:46 51°15.304 2°54.09 13.2 315 17.1 101960 78
2007-08-30 07:17:52 51°15.322 2°54.074 11.1 303 17.1 101960 78
2007-08-30 07:17:57 51°15.336 2°54.061 11.8 317 17.1 101950 78
2007-08-30 07:18:02 51°15.351 2°54.047 13.5 306 17.1 101950 78
2007-08-30 07:18:06 51°15.362 2°54.037 13 316 17.1 101950 77
2007-08-30 07:18:11 51°15.377 2°54.024 13.3 307 17.1 101950 77
2007-08-30 07:18:17 51°15.394 2°54.008 13 315 17.1 101950 78
2007-08-30 07:18:22 51°15.409 2°53.994 13.2 304 17.1 101950 78
2007-08-30 07:18:27 51°15.423 2°53.981 12.9 315 17 101950 77
2007-08-30 07:18:31 51°15.435 2°53.97 13 307 17 101950 77
2007-08-30 07:18:37 51°15.452 2°53.955 11.5 316 17 101950 77
2007-08-30 07:18:42 51°15.467 2°53.941 12.5 304 17 101950 77
2007-08-30 07:18:46 51°15.478 2°53.93 11 316 17 101950 77
2007-08-30 07:18:52 51°15.495 2°53.915 10.7 304 17 101950 77
2007-08-30 07:18:56 51°15.507 2°53.904 12.8 316 17 101940 76
2007-08-30 07:19:02 51°15.525 2°53.889 12.6 304 17 101940 76
2007-08-30 07:19:07 51°15.539 2°53.876 13 316 17 101950 76
2007-08-30 07:19:12 51°15.554 2°53.864 11 305 17 101950 76
2007-08-30 07:19:17 51°15.569 2°53.851 10.8 27 17 101950 76
2007-08-30 07:19:22 51°15.584 2°53.838 11.6 304 17 101950 76
2007-08-30 07:19:26 51°15.595 2°53.829 12.6 26 16.9 101950 76
2007-08-30 07:19:32 51°15.613 2°53.814 11.7 303 16.9 101950 76
2007-08-30 07:19:37 51°15.628 2°53.801 10.9 25 17 101950 76
2007-08-30 07:19:42 51°15.643 2°53.789 13.6 304 17 101950 76
2007-08-30 07:19:46 51°15.654 2°53.779 13.1 21 17 101950 76
2007-08-30 07:19:52 51°15.672 2°53.764 11.4 303 17 101950 76
2007-08-30 07:19:57 51°15.687 2°53.751 12.9 21 17 101950 77
2007-08-30 07:20:02 51°15.702 2°53.739 12.9 305 17 101950 77
2007-08-30 07:20:06 51°15.714 2°53.729 11.8 22 17 101950 76
2007-08-30 07:20:10 51°15.725 2°53.718 12.2 305 17 101950 76
2007-08-30 07:20:17 51°15.746 2°53.7 13.1 23 17 101950 76
2007-08-30 07:20:22 51°15.76 2°53.687 11.7 305 17 101950 76
2007-08-30 07:20:26 51°15.772 2°53.677 11 26 16.9 101950 75
2007-08-30 07:20:31 51°15.787 2°53.665 12.3 307 16.9 101950 75
2007-08-30 07:20:37 51°15.805 2°53.65 10.8 24 16.9 101960 76
2007-08-30 07:20:42 51°15.82 2°53.637 12.3 304 16.9 101960 76
2007-08-30 07:20:46 51°15.832 2°53.628 10.1 29 16.9 101950 77
2007-08-30 07:20:52 51°15.85 2°53.613 10.7 302 16.9 101950 77
2007-08-30 07:20:56 51°15.862 2°53.603 11.5 315 17 101960 78
2007-08-30 07:21:02 51°15.88 2°53.589 12.9 307 17 101960 78
2007-08-30 07:21:07 51°15.894 2°53.576 12.6 19 16.9 101950 77
2007-08-30 07:21:12 51°15.909 2°53.563 12.8 303 16.9 101950 77
2007-08-30 07:21:16 51°15.921 2°53.553 12.8 24 16.9 101960 77
2007-08-30 07:21:22 51°15.939 2°53.538 12.9 307 16.9 101960 77
2007-08-30 07:21:27 51°15.954 2°53.525 12.9 22 17 101960 78
2007-08-30 07:21:31 51°15.966 2°53.515 12.2 308 17 101960 78
2007-08-30 07:21:37 51°15.983 2°53.499 12.9 21 16.9 101950 77
2007-08-30 07:21:42 51°15.998 2°53.487 12.9 309 16.9 101950 77
2007-08-30 07:21:47 51°16.013 2°53.474 12.3 27 16.9 101960 76
2007-08-30 07:21:52 51°16.028 2°53.462 12.3 307 16.9 101960 76
2007-08-30 07:21:57 51°16.043 2°53.45 11.3 22 16.9 101950 76
2007-08-30 07:22:02 51°16.058 2°53.438 12.4 307 16.9 101950 76
2007-08-30 07:22:06 51°16.07 2°53.429 12.3 24 16.9 101950 77
2007-08-30 07:22:12 51°16.088 2°53.415 12.8 303 16.9 101950 77
2007-08-30 07:22:17 51°16.103 2°53.403 12.2 25 16.9 101950 76
2007-08-30 07:22:22 51°16.118 2°53.391 11.5 307 16.9 101950 76
2007-08-30 07:22:26 51°16.13 2°53.381 11.1 26 16.9 101950 76
2007-08-30 07:22:31 51°16.145 2°53.369 12.2 303 16.9 101950 76
2007-08-30 07:22:37 51°16.162 2°53.353 12.8 316 16.9 101950 76
2007-08-30 07:22:42 51°16.177 2°53.341 11.2 303 16.9 101950 76
2007-08-30 07:22:46 51°16.189 2°53.33 14.5 25 16.9 101950 76
2007-08-30 07:22:52 51°16.206 2°53.315 12.6 305 16.9 101950 76
2007-08-30 07:22:56 51°16.218 2°53.305 12.9 28 16.9 101950 77
2007-08-30 07:23:02 51°16.236 2°53.29 13.1 306 16.9 101950 77
2007-08-30 07:23:07 51°16.25 2°53.277 11.3 28 17 101960 78
2007-08-30 07:23:12 51°16.265 2°53.264 12 308 17 101960 78
2007-08-30 07:23:16 51°16.277 2°53.253 12.4 20 17 101950 78
2007-08-30 07:23:22 51°16.295 2°53.238 12.9 304 17 101950 78
2007-08-30 07:23:27 51°16.309 2°53.226 11.5 22 16.9 101950 77
2007-08-30 07:23:31 51°16.321 2°53.216 11.6 300 16.9 101950 77
2007-08-30 07:23:37 51°16.339 2°53.201 12.9 26 16.9 101960 77
2007-08-30 07:23:42 51°16.354 2°53.188 11.5 304 16.9 101960 77
2007-08-30 07:23:46 51°16.366 2°53.178 10.9 24 16.9 101950 77
2007-08-30 07:23:52 51°16.384 2°53.163 10.8 305 16.9 101950 77
2007-08-30 07:23:57 51°16.398 2°53.151 12.3 23 16.9 101950 77
2007-08-30 07:24:02 51°16.413 2°53.138 12.8 305 16.9 101950 77
2007-08-30 07:24:06 51°16.425 2°53.128 11.4 26 16.9 101950 77
2007-08-30 07:24:12 51°16.443 2°53.113 13.6 303 16.9 101950 77
2007-08-30 07:24:17 51°16.458 2°53.101 13.3 317 16.9 101960 78
2007-08-30 07:24:22 51°16.473 2°53.088 12.2 307 16.9 101960 78
2007-08-30 07:24:26 51°16.484 2°53.078 11.4 315 17 101950 78
2007-08-30 07:24:32 51°16.502 2°53.063 11.8 305 17 101950 78
2007-08-30 07:24:37 51°16.517 2°53.05 13.2 316 17 101950 78
2007-08-30 07:24:42 51°16.531 2°53.036 11.3 307 17 101950 78
2007-08-30 07:24:46 51°16.543 2°53.026 12.3 315 17 101960 79
2007-08-30 07:24:52 51°16.561 2°53.011 12 304 17 101960 79
2007-08-30 07:24:57 51°16.575 2°52.999 13.2 25 17 101960 78
2007-08-30 07:25:02 51°16.59 2°52.988 11 300 17 101960 78
2007-08-30 07:25:07 51°16.605 2°52.977 13.1 29 16.9 101950 78
2007-08-30 07:25:11 51°16.617 2°52.968 12.8 307 16.9 101950 78
2007-08-30 07:25:17 51°16.636 2°52.954 11.8 24 16.9 101960 78
2007-08-30 07:25:22 51°16.651 2°52.942 11.1 302 16.9 101960 78
2007-08-30 07:25:26 51°16.662 2°52.933 11.9 27 16.9 101950 78
2007-08-30 07:25:32 51°16.68 2°52.918 11.1 308 16.9 101950 78
2007-08-30 07:25:36 51°16.692 2°52.909 11.4 27 16.9 101940 78
2007-08-30 07:25:42 51°16.71 2°52.895 11 309 16.9 101940 78
2007-08-30 07:25:47 51°16.726 2°52.885 12.8 22 16.9 101950 78
2007-08-30 07:25:52 51°16.741 2°52.875 11.9 302 16.9 101950 78
2007-08-30 07:25:56 51°16.753 2°52.867 12.2 23 17 101960 79
2007-08-30 07:26:02 51°16.772 2°52.856 11.4 303 17 101960 79
2007-08-30 07:26:06 51°16.784 2°52.849 10.2 29 17 101950 79
2007-08-30 07:26:11 51°16.799 2°52.84 9.8 307 17 101950 79
2007-08-30 07:26:17 51°16.817 2°52.83 11.1 23 17 101950 79
2007-08-30 07:26:22 51°16.833 2°52.822 11.4 305 17 101950 79
2007-08-30 07:26:26 51°16.845 2°52.815 10.7 23 17 101950 79
2007-08-30 07:26:32 51°16.863 2°52.805 12.2 300 17 101950 79
2007-08-30 07:26:37 51°16.878 2°52.797 10.7 26 17 101960 80
2007-08-30 07:26:42 51°16.893 2°52.787 12 302 17 101960 80
2007-08-30 07:26:46 51°16.905 2°52.78 10.5 22 16.9 101950 77
2007-08-30 07:26:52 51°16.923 2°52.767 11.3 303 16.9 101950 77
2007-08-30 07:26:57 51°16.938 2°52.757 11.8 26 16.8 101950 75
2007-08-30 07:27:02 51°16.952 2°52.746 11.1 307 16.8 101950 75
2007-08-30 07:27:06 51°16.964 2°52.737 11 317 16.8 101950 74
2007-08-30 07:27:11 51°16.979 2°52.727 10.8 308 16.8 101950 74
2007-08-30 07:27:16 51°16.994 2°52.716 12.9 317 16.8 101950 75
2007-08-30 07:27:22 51°17.012 2°52.703 11.9 302 16.8 101950 75
2007-08-30 07:27:26 51°17.024 2°52.695 12 25 16.9 101950 77
2007-08-30 07:27:32 51°17.042 2°52.685 9.8 305 16.9 101950 77
2007-08-30 07:27:36 51°17.055 2°52.678 10.6 29 16.9 101960 78
2007-08-30 07:27:42 51°17.073 2°52.67 10.1 304 16.9 101960 78
2007-08-30 07:27:47 51°17.089 2°52.664 11.2 21 17 101950 78
2007-08-30 07:27:52 51°17.104 2°52.657 11.3 302 17 101950 78
2007-08-30 07:27:56 51°17.117 2°52.652 9.5 25 17 101950 78
2007-08-30 07:28:02 51°17.136 2°52.646 10.8 306 17 101950 78
2007-08-30 07:28:07 51°17.151 2°52.64 9.3 24 17 101950 78
2007-08-30 07:28:11 51°17.164 2°52.636 9.2 307 17 101950 78
2007-08-30 07:28:17 51°17.182 2°52.63 9.9 27 17 101950 77
2007-08-30 07:28:22 51°17.198 2°52.624 9.8 301 17 101950 77
2007-08-30 07:28:27 51°17.212 2°52.619 10.8 24 16.9 101950 77
2007-08-30 07:28:32 51°17.225 2°52.613 11.1 304 16.9 101950 77
2007-08-30 07:28:37 51°17.237 2°52.607 8.4 24 17 101960 78
2007-08-30 07:28:42 51°17.249 2°52.601 9.5 307 17 101960 78
2007-08-30 07:28:46 51°17.257 2°52.596 8.8 20 17 101960 78
2007-08-30 07:28:52 51°17.269 2°52.589 10.5 302 17 101960 78
2007-08-30 07:28:57 51°17.279 2°52.583 10.5 24 17 101950 78
2007-08-30 07:29:02 51°17.288 2°52.577 10.3 301 17 101950 78
2007-08-30 07:29:06 51°17.294 2°52.572 8.1 24 17 101960 79
2007-08-30 07:29:12 51°17.304 2°52.566 9 303 17 101960 79
2007-08-30 07:29:17 51°17.31 2°52.561 11 28 17 101960 79
2007-08-30 07:29:22 51°17.317 2°52.556 10 303 17 101960 79
2007-08-30 07:29:26 51°17.322 2°52.552 9.9 24 17 101970 79
2007-08-30 07:29:32 51°17.329 2°52.547 8.9 302 17 101970 79
2007-08-30 07:29:36 51°17.334 2°52.543 7.4 24 17 101970 79
2007-08-30 07:29:42 51°17.34 2°52.538 8.2 303 17 101970 79
2007-08-30 07:29:47 51°17.345 2°52.533 8.2 26 17 101960 78
2007-08-30 07:29:51 51°17.348 2°52.53 8.4 305 17 101960 78
2007-08-30 07:29:57 51°17.354 2°52.525 7.8 24 17 101970 79
2007-08-30 07:30:02 51°17.358 2°52.521 7.9 308 17 101970 79
2007-08-30 07:30:06 51°17.361 2°52.518 7.4 25 17.1 101970 79
2007-08-30 07:30:12 51°17.366 2°52.514 7 300 17.1 101970 79
2007-08-30 07:30:17 51°17.37 2°52.51 7.3 24 17.1 101970 80
2007-08-30 07:30:22 51°17.374 2°52.506 7.1 307 17.1 101970 80
2007-08-30 07:30:27 51°17.378 2°52.503 7.5 24 17.1 101970 79
2007-08-30 07:30:32 51°17.382 2°52.5 8.9 303 17.1 101970 79
2007-08-30 07:30:37 51°17.386 2°52.497 8.7 242 17.1 101970 79
2007-08-30 07:30:42 51°17.39 2°52.494 7.5 308 17.1 101970 79
2007-08-30 07:30:46 51°17.393 2°52.492 7.4 246 17.1 101970 79
2007-08-30 07:30:51 51°17.397 2°52.49 8.8 308 17.1 101970 79
2007-08-30 07:30:57 51°17.403 2°52.487 8.1 248 17.1 101970 79
2007-08-30 07:31:02 51°17.407 2°52.485 8 300 17.1 101970 79
2007-08-30 07:31:06 51°17.41 2°52.484 9.6 22 17.1 101970 78
2007-08-30 07:31:12 51°17.416 2°52.482 8.2 303 17.1 101970 78
2007-08-30 07:31:17 51°17.42 2°52.48 6.9 23 17.1 101970 78
2007-08-30 07:31:22 51°17.424 2°52.479 7.4 306 17.1 101970 78
2007-08-30 07:31:26 51°17.428 2°52.478 6.5 251 17.1 101970 79
2007-08-30 07:31:30 51°17.431 2°52.477 8.4 306 17.1 101970 79
2007-08-30 07:31:37 51°17.438 2°52.476 6.5 22 17.1 101970 79
2007-08-30 07:31:42 51°17.442 2°52.475 6.8 305 17.1 101970 79
2007-08-30 07:31:46 51°17.446 2°52.475 7 246 17.1 101970 79
2007-08-30 07:31:51 51°17.451 2°52.475 8.4 310 17.1 101970 79
2007-08-30 07:31:57 51°17.457 2°52.475 6.8 250 17.1 101970 79
2007-08-30 07:32:02 51°17.461 2°52.476 7.9 306 17.1 101970 79
2007-08-30 07:32:06 51°17.465 2°52.476 8.7 252 17.1 101970 79
2007-08-30 07:32:12 51°17.471 2°52.478 8.4 303 17.1 101970 79
2007-08-30 07:32:16 51°17.475 2°52.48 8.3 252 17.2 101970 79
2007-08-30 07:32:22 51°17.48 2°52.482 8.5 303 17.2 101970 79
2007-08-30 07:32:27 51°17.485 2°52.485 7.2 255 17.2 101970 79
2007-08-30 07:32:32 51°17.49 2°52.488 6.7 305 17.2 101970 79
2007-08-30 07:32:36 51°17.493 2°52.49 7.2 255 17.2 101970 79
2007-08-30 07:32:42 51°17.499 2°52.495 8.6 304 17.2 101970 79
2007-08-30 07:32:47 51°17.504 2°52.498 7 256 17.1 101970 79
2007-08-30 07:32:51 51°17.507 2°52.501 8.3 305 17.1 101970 79
2007-08-30 07:32:57 51°17.512 2°52.506 8.5 256 17.1 101970 78
2007-08-30 07:33:02 51°17.517 2°52.51 9 306 17.1 101970 78
2007-08-30 07:33:06 51°17.52 2°52.513 8.1 259 17.1 101970 78
2007-08-30 07:33:12 51°17.526 2°52.518 6.4 307 17.1 101970 78
2007-08-30 07:33:17 51°17.53 2°52.523 5.3 261 17.1 101970 78
2007-08-30 07:33:22 51°17.535 2°52.527 4.3 304 17.1 101970 78
2007-08-30 07:33:26 51°17.538 2°52.532 5.2 266 17.1 101970 78
2007-08-30 07:33:31 51°17.542 2°52.537 4.7 308 17.1 101970 78
2007-08-30 07:33:37 51°17.546 2°52.545 5.6 268 17.1 101970 78
2007-08-30 07:33:42 51°17.549 2°52.551 4.8 329 17.1 101970 78
2007-08-30 07:33:46 51°17.552 2°52.556 5.5 270 17.1 101970 78
2007-08-30 07:33:51 51°17.555 2°52.563 5.5 58 17.1 101970 78
2007-08-30 07:33:57 51°17.558 2°52.572 6.5 26 17.1 101980 78
2007-08-30 07:34:02 51°17.56 2°52.58 5.2 54 17.1 101980 78
2007-08-30 07:34:06 51°17.562 2°52.586 4.8 29 17.1 101980 78
2007-08-30 07:34:12 51°17.564 2°52.597 4.5 55 17.1 101980 78
2007-08-30 07:34:16 51°17.566 2°52.605 4.9 22 17 101980 78
2007-08-30 07:34:22 51°17.569 2°52.619 3.6 52 17 101980 78
2007-08-30 07:34:27 51°17.571 2°52.632 3.8 26 17 101980 77
2007-08-30 07:34:32 51°17.573 2°52.646 3.1 57 17 101980 77
2007-08-30 07:34:37 51°17.575 2°52.662 3.2 28 17 101980 77
2007-08-30 07:34:42 51°17.577 2°52.679 2.3 59 17 101980 77
2007-08-30 07:34:47 51°17.58 2°52.698 2 29 17 101980 78
2007-08-30 07:34:51 51°17.583 2°52.713 2.9 57 17 101980 78
2007-08-30 07:34:57 51°17.586 2°52.738 2.6 22 17 101980 78
2007-08-30 07:35:02 51°17.589 2°52.759 2.9 58 17 101980 78
2007-08-30 07:35:06 51°17.592 2°52.776 2.2 268 17 101980 78
2007-08-30 07:35:12 51°17.598 2°52.803 3 305 17 101980 78
2007-08-30 07:35:17 51°17.602 2°52.825 3.7 255 17 101980 78
2007-08-30 07:35:22 51°17.607 2°52.847 2.3 306 17 101980 78
2007-08-30 07:35:26 51°17.611 2°52.865 2.9 261 17 101980 78
2007-08-30 07:35:32 51°17.618 2°52.891 3.4 302 17 101980 78
2007-08-30 07:35:37 51°17.624 2°52.914 4.2 258 17.1 101980 79
2007-08-30 07:35:42 51°17.63 2°52.936 2.5 305 17.1 101980 79
2007-08-30 07:35:46 51°17.635 2°52.954 3.1 260 17.1 101980 79
2007-08-30 07:35:51 51°17.642 2°52.976 4.3 303 17.1 101980 79
2007-08-30 07:35:57 51°17.649 2°53.003 3.5 257 17.1 101980 79
2007-08-30 07:36:02 51°17.655 2°53.025 3.8 307 17.1 101980 79
2007-08-30 07:36:06 51°17.66 2°53.043 3.8 258 17.1 101980 79
2007-08-30 07:36:12 51°17.668 2°53.07 3.2 301 17.1 101980 79
2007-08-30 07:36:17 51°17.674 2°53.093 3.4 258 17.1 101990 78
2007-08-30 07:36:22 51°17.68 2°53.115 3.8 302 17.1 101990 78
2007-08-30 07:36:27 51°17.687 2°53.137 4.4 257 17.1 101980 78
2007-08-30 07:36:31 51°17.692 2°53.155 4.5 307 17.1 101980 78
2007-08-30 07:36:37 51°17.701 2°53.181 4 255 17.1 101980 78
2007-08-30 07:36:42 51°17.708 2°53.203 4.8 300 17.1 101980 78
2007-08-30 07:36:47 51°17.715 2°53.225 4.7 253 17.1 101980 78
2007-08-30 07:36:51 51°17.721 2°53.242 4.6 303 17.1 101980 78
2007-08-30 07:36:57 51°17.729 2°53.269 4.4 253 17.1 101980 78
2007-08-30 07:37:02 51°17.736 2°53.291 4.8 308 17.1 101980 78
2007-08-30 07:37:06 51°17.741 2°53.309 4.6 256 17.1 101980 78
2007-08-30 07:37:12 51°17.749 2°53.336 3.8 306 17.1 101980 78
2007-08-30 07:37:17 51°17.755 2°53.358 3.7 254 17.1 101980 79
2007-08-30 07:37:22 51°17.761 2°53.381 3.6 305 17.1 101980 79
2007-08-30 07:37:27 51°17.767 2°53.404 3.8 253 17.1 101990 79
2007-08-30 07:37:32 51°17.774 2°53.427 4.3 307 17.1 101990 79
2007-08-30 07:37:37 51°17.781 2°53.449 4.5 254 17.1 101980 79
2007-08-30 07:37:42 51°17.787 2°53.471 4.2 280 17.1 101980 79
2007-08-30 07:37:46 51°17.793 2°53.489 5.3 253 17.1 101980 79
2007-08-30 07:37:52 51°17.801 2°53.515 4.7 304 17.1 101980 79
2007-08-30 07:37:57 51°17.809 2°53.535 4 253 17.2 101980 79
2007-08-30 07:38:02 51°17.817 2°53.557 4 302 17.2 101980 79
2007-08-30 07:38:06 51°17.823 2°53.573 4.1 251 17.2 101990 79
2007-08-30 07:38:11 51°17.832 2°53.594 4.6 300 17.2 101990 79
2007-08-30 07:38:17 51°17.841 2°53.618 4.2 253 17.2 101990 79
2007-08-30 07:38:22 51°17.849 2°53.639 3.7 301 17.2 101990 79
2007-08-30 07:38:26 51°17.856 2°53.656 4.1 247 17.2 101990 79
2007-08-30 07:38:31 51°17.864 2°53.677 3.8 302 17.2 101990 79
2007-08-30 07:38:37 51°17.874 2°53.702 4.2 247 17.2 101980 78
2007-08-30 07:38:42 51°17.881 2°53.723 4.6 278 17.2 101980 78
2007-08-30 07:38:46 51°17.887 2°53.741 4.1 253 17.2 101980 78
2007-08-30 07:38:52 51°17.896 2°53.766 4.5 301 17.2 101980 78
2007-08-30 07:38:56 51°17.902 2°53.784 4.5 256 17.2 101980 78
2007-08-30 07:39:02 51°17.91 2°53.81 3.6 309 17.2 101980 78
2007-08-30 07:39:07 51°17.918 2°53.832 3.8 259 17.2 101980 78
2007-08-30 07:39:12 51°17.925 2°53.853 4 307 17.2 101980 78
2007-08-30 07:39:17 51°17.933 2°53.875 3.7 258 17.2 101990 78
2007-08-30 07:39:22 51°17.941 2°53.896 2.6 303 17.2 101990 78
2007-08-30 07:39:27 51°17.949 2°53.917 4.4 247 17.2 101990 78
2007-08-30 07:39:31 51°17.955 2°53.933 3.1 302 17.2 101990 78
2007-08-30 07:39:37 51°17.965 2°53.958 3.7 249 17.3 101990 78
2007-08-30 07:39:42 51°17.974 2°53.978 3.7 285 17.3 101990 78
2007-08-30 07:39:46 51°17.981 2°53.995 4.2 252 17.3 101990 78
2007-08-30 07:39:52 51°17.991 2°54.019 4.2 308 17.3 101990 78
2007-08-30 07:39:57 51°18 2°54.04 4.2 21 17.3 101990 78
2007-08-30 07:40:02 51°18.008 2°54.061 4.3 301 17.3 101990 78
2007-08-30 07:40:06 51°18.014 2°54.077 5.9 254 17.3 101990 78
2007-08-30 07:40:12 51°18.023 2°54.103 6 308 17.3 101990 78
2007-08-30 07:40:17 51°18.031 2°54.124 4.1 255 17.4 101990 79
2007-08-30 07:40:22 51°18.039 2°54.145 4.6 302 17.4 101990 79
2007-08-30 07:40:26 51°18.045 2°54.163 5.3 254 17.4 101990 79
2007-08-30 07:40:32 51°18.054 2°54.188 4.2 302 17.4 101990 79
2007-08-30 07:40:37 51°18.062 2°54.209 5.8 252 17.4 101990 78
2007-08-30 07:40:42 51°18.07 2°54.229 4.8 303 17.4 101990 78
2007-08-30 07:40:46 51°18.077 2°54.246 5.3 254 17.4 101990 78
2007-08-30 07:40:52 51°18.087 2°54.271 4.7 303 17.4 101990 78
2007-08-30 07:40:56 51°18.093 2°54.288 5.6 21 17.4 101990 78
2007-08-30 07:41:02 51°18.103 2°54.312 5.1 307 17.4 101990 78
2007-08-30 07:41:07 51°18.111 2°54.333 5.7 252 17.4 101990 78
2007-08-30 07:41:12 51°18.12 2°54.353 6.3 304 17.4 101990 78
2007-08-30 07:41:16 51°18.126 2°54.37 5.5 254 17.4 101990 77
2007-08-30 07:41:22 51°18.137 2°54.394 7.1 307 17.4 101990 77
2007-08-30 07:41:27 51°18.145 2°54.414 6.7 255 17.5 101990 77
2007-08-30 07:41:32 51°18.154 2°54.435 6.5 309 17.5 101990 77
2007-08-30 07:41:36 51°18.161 2°54.451 5.3 255 17.5 101990 77
2007-08-30 07:41:42 51°18.171 2°54.475 4.3 279 17.5 101990 77
2007-08-30 07:41:47 51°18.18 2°54.495 6 256 17.5 101980 77
2007-08-30 07:41:51 51°18.187 2°54.511 4.6 302 17.5 101980 77
2007-08-30 07:41:57 51°18.197 2°54.535 5.4 249 17.5 101980 77
2007-08-30 07:42:02 51°18.206 2°54.555 6 303 17.5 101980 77
2007-08-30 07:42:07 51°18.215 2°54.575 4.8 255 17.5 102000 76
2007-08-30 07:42:12 51°18.224 2°54.595 5.6 307 17.5 102000 76
2007-08-30 07:42:17 51°18.233 2°54.615 4.8 253 17.5 101990 76
2007-08-30 07:42:22 51°18.241 2°54.636 4.2 306 17.5 101990 76
2007-08-30 07:42:26 51°18.248 2°54.652 5.1 253 17.5 101990 77
2007-08-30 07:42:32 51°18.257 2°54.677 5 306 17.5 101990 77
2007-08-30 07:42:37 51°18.265 2°54.698 5.9 253 17.5 101990 76
2007-08-30 07:42:42 51°18.273 2°54.719 4.4 283 17.5 101990 76
2007-08-30 07:42:46 51°18.279 2°54.735 5.2 255 17.5 101990 76
2007-08-30 07:42:52 51°18.288 2°54.761 5.5 306 17.5 101990 76
2007-08-30 07:42:57 51°18.296 2°54.782 5.6 256 17.5 101990 76
2007-08-30 07:43:02 51°18.304 2°54.803 4.3 303 17.5 101990 76
2007-08-30 07:43:06 51°18.31 2°54.82 5.2 249 17.5 101990 76
2007-08-30 07:43:12 51°18.32 2°54.845 4.6 307 17.5 101990 76
2007-08-30 07:43:16 51°18.326 2°54.861 5.7 255 17.5 102000 76
2007-08-30 07:43:22 51°18.336 2°54.886 5.7 301 17.5 102000 76
2007-08-30 07:43:27 51°18.345 2°54.906 3.4 260 17.5 101990 76
2007-08-30 07:43:31 51°18.352 2°54.922 4.7 303 17.5 101990 76
2007-08-30 07:43:37 51°18.362 2°54.947 4.6 254 17.5 101990 76
2007-08-30 07:43:42 51°18.371 2°54.967 4.2 301 17.5 101990 76
2007-08-30 07:43:46 51°18.378 2°54.983 5.2 252 17.5 101990 76
2007-08-30 07:43:52 51°18.388 2°55.008 4.5 308 17.5 101990 76
2007-08-30 07:43:57 51°18.396 2°55.028 5.8 258 17.5 101990 76
2007-08-30 07:44:02 51°18.404 2°55.049 4.5 303 17.5 101990 76
2007-08-30 07:44:07 51°18.412 2°55.07 5 251 17.5 101990 77
2007-08-30 07:44:12 51°18.42 2°55.092 5.4 303 17.5 101990 77
2007-08-30 07:44:17 51°18.428 2°55.112 3.9 251 17.5 101990 77
2007-08-30 07:44:22 51°18.435 2°55.133 4.9 309 17.5 101990 77
2007-08-30 07:44:27 51°18.443 2°55.154 5.2 255 17.6 101990 76
2007-08-30 07:44:32 51°18.451 2°55.175 4.7 303 17.6 101990 76
2007-08-30 07:44:37 51°18.459 2°55.195 4.6 258 17.6 101990 77
2007-08-30 07:44:42 51°18.467 2°55.216 4.1 279 17.6 101990 77
2007-08-30 07:44:46 51°18.474 2°55.232 4 252 17.6 102000 77
2007-08-30 07:44:52 51°18.483 2°55.257 3.5 303 17.6 102000 77
2007-08-30 07:44:57 51°18.491 2°55.277 4.9 255 17.6 101990 76
2007-08-30 07:45:02 51°18.5 2°55.297 3.8 308 17.6 101990 76
2007-08-30 07:45:06 51°18.506 2°55.313 4.2 250 17.6 101990 76
2007-08-30 07:45:10 51°18.513 2°55.329 4.5 309 17.6 101990 76
2007-08-30 07:45:17 51°18.525 2°55.356 4.3 255 17.6 101990 77
2007-08-30 07:45:22 51°18.534 2°55.376 4.1 301 17.6 101990 77
2007-08-30 07:45:26 51°18.541 2°55.392 4.8 251 17.6 101990 77
2007-08-30 07:45:31 51°18.549 2°55.412 4.4 306 17.6 101990 77
2007-08-30 07:45:37 51°18.559 2°55.436 4.1 255 17.6 101990 77
2007-08-30 07:45:42 51°18.568 2°55.455 4 280 17.6 101990 77
2007-08-30 07:45:46 51°18.575 2°55.471 4.7 27 17.6 101990 76
2007-08-30 07:45:52 51°18.585 2°55.495 3.5 300 17.6 101990 76
2007-08-30 07:45:56 51°18.591 2°55.512 5.5 249 17.6 101990 77
2007-08-30 07:46:02 51°18.6 2°55.536 4.9 309 17.6 101990 77
2007-08-30 07:46:07 51°18.608 2°55.557 4.2 244 17.6 101990 77
2007-08-30 07:46:12 51°18.616 2°55.577 4.3 303 17.6 101990 77
2007-08-30 07:46:16 51°18.623 2°55.593 4.3 21 17.6 101990 77
2007-08-30 07:46:22 51°18.632 2°55.618 4 303 17.6 101990 77
2007-08-30 07:46:27 51°18.641 2°55.638 4.9 246 17.7 101990 77
2007-08-30 07:46:32 51°18.649 2°55.658 4.3 302 17.7 101990 77
2007-08-30 07:46:37 51°18.658 2°55.677 5.4 248 17.7 101990 76
2007-08-30 07:46:42 51°18.666 2°55.697 5.2 278 17.7 101990 76
2007-08-30 07:46:47 51°18.675 2°55.717 4.5 20 17.7 102000 76
2007-08-30 07:46:52 51°18.683 2°55.737 4.3 309 17.7 102000 76
2007-08-30 07:46:57 51°18.691 2°55.757 5 26 17.7 102000 76
2007-08-30 07:47:02 51°18.699 2°55.778 4.7 302 17.7 102000 76
2007-08-30 07:47:06 51°18.706 2°55.794 4.3 250 17.7 102000 76
2007-08-30 07:47:11 51°18.714 2°55.814 3.8 301 17.7 102000 76
2007-08-30 07:47:17 51°18.723 2°55.838 5.3 253 17.7 101990 76
2007-08-30 07:47:22 51°18.732 2°55.858 4.7 301 17.7 101990 76
2007-08-30 07:47:26 51°18.738 2°55.874 4.8 245 17.7 102000 76
2007-08-30 07:47:31 51°18.746 2°55.894 4.7 302 17.7 102000 76
2007-08-30 07:47:37 51°18.757 2°55.917 3.9 23 17.7 102000 76
2007-08-30 07:47:42 51°18.765 2°55.937 5.1 284 17.7 102000 76
2007-08-30 07:47:46 51°18.771 2°55.953 4.5 26 17.6 102000 76
2007-08-30 07:47:52 51°18.781 2°55.977 4.3 308 17.6 102000 76
2007-08-30 07:47:56 51°18.788 2°55.993 4.9 248 17.6 101990 76
2007-08-30 07:48:02 51°18.797 2°56.017 4.6 307 17.6 101990 76
2007-08-30 07:48:07 51°18.805 2°56.037 3.6 249 17.6 102000 76
2007-08-30 07:48:12 51°18.814 2°56.056 5 308 17.6 102000 76
2007-08-30 07:48:16 51°18.82 2°56.072 4.5 249 17.6 101990 76
2007-08-30 07:48:22 51°18.83 2°56.096 4.9 307 17.6 101990 76
2007-08-30 07:48:27 51°18.838 2°56.115 4.5 254 17.6 101990 76
2007-08-30 07:48:32 51°18.846 2°56.135 4.4 307 17.6 101990 76
2007-08-30 07:48:37 51°18.855 2°56.155 4.9 249 17.6 101990 75
2007-08-30 07:48:42 51°18.863 2°56.174 5.4 280 17.6 101990 75
2007-08-30 07:48:47 51°18.871 2°56.194 5.4 26 17.6 101990 76
2007-08-30 07:48:52 51°18.879 2°56.213 4.5 302 17.6 101990 76
2007-08-30 07:48:57 51°18.887 2°56.233 4.4 248 17.6 101990 76
2007-08-30 07:49:02 51°18.896 2°56.252 4.8 302 17.6 101990 76
2007-08-30 07:49:06 51°18.902 2°56.268 4.8 249 17.6 101990 76
2007-08-30 07:49:12 51°18.912 2°56.291 5.3 304 17.6 101990 76
2007-08-30 07:49:17 51°18.92 2°56.31 3.8 255 17.6 101990 76
2007-08-30 07:49:22 51°18.929 2°56.33 3.8 301 17.6 101990 76
2007-08-30 07:49:26 51°18.935 2°56.345 3.8 249 17.6 102000 76
2007-08-30 07:49:32 51°18.945 2°56.369 3.7 308 17.6 102000 76
2007-08-30 07:49:37 51°18.953 2°56.388 3.9 249 17.6 101990 76
2007-08-30 07:49:42 51°18.961 2°56.408 3.9 281 17.6 101990 76
2007-08-30 07:49:46 51°18.967 2°56.424 5.2 249 17.5 102000 76
2007-08-30 07:49:51 51°18.975 2°56.443 4.7 302 17.5 102000 76
2007-08-30 07:49:57 51°18.985 2°56.467 5.9 245 17.5 101990 76
2007-08-30 07:50:02 51°18.993 2°56.486 5.2 304 17.5 101990 76
2007-08-30 07:50:06 51°19 2°56.501 5.8 252 17.5 101990 76
2007-08-30 07:50:12 51°19.01 2°56.524 5 302 17.5 101990 76
2007-08-30 07:50:16 51°19.016 2°56.54 5.5 255 17.5 101990 76
2007-08-30 07:50:22 51°19.026 2°56.562 4.4 303 17.5 101990 76
2007-08-30 07:50:27 51°19.034 2°56.582 4.4 252 17.5 101990 76
2007-08-30 07:50:32 51°19.042 2°56.602 5.7 306 17.5 101990 76
2007-08-30 07:50:37 51°19.049 2°56.622 4.3 20 17.5 101990 76
2007-08-30 07:50:42 51°19.057 2°56.641 5.1 283 17.5 101990 76
2007-08-30 07:50:47 51°19.065 2°56.661 5.5 244 17.5 101990 76
2007-08-30 07:50:52 51°19.072 2°56.681 5.2 302 17.5 101990 76
2007-08-30 07:50:57 51°19.08 2°56.7 5 253 17.5 101990 76
2007-08-30 07:51:02 51°19.088 2°56.72 4 308 17.5 101990 76
2007-08-30 07:51:06 51°19.094 2°56.736 5.4 254 17.5 101990 76
2007-08-30 07:51:12 51°19.104 2°56.759 5.5 302 17.5 101990 76
2007-08-30 07:51:17 51°19.111 2°56.778 5 254 17.5 101990 76
2007-08-30 07:51:22 51°19.119 2°56.797 6.3 303 17.5 101990 76
2007-08-30 07:51:26 51°19.126 2°56.813 5.2 251 17.5 101990 75
2007-08-30 07:51:31 51°19.134 2°56.832 5.1 309 17.5 101990 75
2007-08-30 07:51:37 51°19.143 2°56.855 5.4 250 17.5 101990 75
2007-08-30 07:51:42 51°19.151 2°56.874 5.4 305 17.5 101990 75
2007-08-30 07:51:46 51°19.158 2°56.889 4.4 252 17.5 101990 75
2007-08-30 07:51:52 51°19.167 2°56.912 4.6 308 17.5 101990 75
2007-08-30 07:51:57 51°19.176 2°56.931 4.2 252 17.4 101990 75
2007-08-30 07:52:02 51°19.184 2°56.951 3.4 308 17.4 101990 75
2007-08-30 07:52:07 51°19.192 2°56.97 2.9 21 17.5 101990 75
2007-08-30 07:52:12 51°19.198 2°56.99 3 303 17.5 101990 75
2007-08-30 07:52:17 51°19.204 2°57.011 1.9 20 17.4 101990 75
2007-08-30 07:52:22 51°19.209 2°57.033 2.5 307 17.4 101990 75
2007-08-30 07:52:27 51°19.213 2°57.055 2.3 256 17.4 101990 75
2007-08-30 07:52:32 51°19.218 2°57.077 1.7 308 17.4 101990 75
2007-08-30 07:52:36 51°19.221 2°57.095 2.3 263 17.4 102000 74
2007-08-30 07:52:42 51°19.226 2°57.122 1.7 281 17.4 102000 74
2007-08-30 07:52:47 51°19.229 2°57.144 1.7 261 17.4 101990 75
2007-08-30 07:52:52 51°19.234 2°57.167 1.3 303 17.4 101990 75
2007-08-30 07:52:57 51°19.238 2°57.189 1.2 262 17.4 102000 74
2007-08-30 07:53:02 51°19.242 2°57.211 1.8 304 17.4 102000 74
2007-08-30 07:53:06 51°19.246 2°57.229 1.9 260 17.4 102000 74
2007-08-30 07:53:11 51°19.25 2°57.251 3.5 305 17.4 102000 74
2007-08-30 07:53:17 51°19.256 2°57.277 2.5 260 17.4 102000 74
2007-08-30 07:53:22 51°19.261 2°57.298 2.7 303 17.4 102000 74
2007-08-30 07:53:26 51°19.266 2°57.315 3.1 254 17.4 102000 75
2007-08-30 07:53:32 51°19.273 2°57.34 3.7 301 17.4 102000 75
2007-08-30 07:53:37 51°19.279 2°57.361 3.8 260 17.4 101990 75
2007-08-30 07:53:42 51°19.286 2°57.381 3.5 279 17.4 101990 75
2007-08-30 07:53:46 51°19.29 2°57.397 3.5 253 17.4 102000 75
2007-08-30 07:53:52 51°19.298 2°57.422 3.6 306 17.4 102000 75
2007-08-30 07:53:57 51°19.304 2°57.443 1.9 262 17.4 101990 75
2007-08-30 07:54:02 51°19.31 2°57.464 2.3 301 17.4 101990 75
2007-08-30 07:54:06 51°19.314 2°57.48 2.2 259 17.4 102000 75
2007-08-30 07:54:11 51°19.321 2°57.501 1.6 304 17.4 102000 75
2007-08-30 07:54:16 51°19.326 2°57.522 1.8 263 17.4 101990 74
2007-08-30 07:54:22 51°19.334 2°57.547 1.5 302 17.4 101990 74
2007-08-30 07:54:26 51°19.338 2°57.563 2.2 260 17.4 101990 74
2007-08-30 07:54:32 51°19.345 2°57.589 2.4 301 17.4 101990 74
2007-08-30 07:54:36 51°19.349 2°57.606 3.2 250 17.4 102000 74
2007-08-30 07:54:42 51°19.356 2°57.631 2.5 280 17.4 102000 74
2007-08-30 07:54:47 51°19.362 2°57.653 3.9 260 17.3 101990 74
2007-08-30 07:54:51 51°19.366 2°57.67 3.5 305 17.3 101990 74
2007-08-30 07:54:57 51°19.373 2°57.695 4.1 260 17.3 101990 74
2007-08-30 07:55:02 51°19.378 2°57.716 3.3 309 17.3 101990 74
2007-08-30 07:55:06 51°19.383 2°57.733 3 261 17.4 102000 75
2007-08-30 07:55:12 51°19.39 2°57.758 2.7 303 17.4 102000 75
2007-08-30 07:55:16 51°19.395 2°57.775 3.5 258 17.4 102000 74
2007-08-30 07:55:22 51°19.402 2°57.8 2.1 301 17.4 102000 74
2007-08-30 07:55:27 51°19.408 2°57.82 2.4 254 17.4 101990 74
2007-08-30 07:55:32 51°19.415 2°57.84 2.6 301 17.4 101990 74
2007-08-30 07:55:36 51°19.42 2°57.856 4.5 258 17.4 101990 74
2007-08-30 07:55:42 51°19.428 2°57.88 2.2 302 17.4 101990 74
2007-08-30 07:55:46 51°19.432 2°57.897 2.2 260 17.4 102000 74
2007-08-30 07:55:52 51°19.44 2°57.921 2.2 301 17.4 102000 74
2007-08-30 07:55:57 51°19.446 2°57.942 2.3 253 17.3 101990 74
2007-08-30 07:56:02 51°19.452 2°57.962 1.9 303 17.3 101990 74
2007-08-30 07:56:07 51°19.457 2°57.983 1.8 266 17.3 102000 74
2007-08-30 07:56:11 51°19.461 2°58 1.3 308 17.3 102000 74
2007-08-30 07:56:17 51°19.468 2°58.025 1.7 270 17.3 102000 74
2007-08-30 07:56:22 51°19.472 2°58.046 1.7 304 17.3 102000 74
2007-08-30 07:56:26 51°19.476 2°58.063 1.4 264 17.3 102000 74
2007-08-30 07:56:31 51°19.48 2°58.085 1.8 304 17.3 102000 74
2007-08-30 07:56:37 51°19.486 2°58.111 2.4 260 17.3 101990 74
2007-08-30 07:56:42 51°19.49 2°58.132 1.5 301 17.3 101990 74
2007-08-30 07:56:46 51°19.494 2°58.149 1.7 253 17.3 102000 74
2007-08-30 07:56:52 51°19.5 2°58.175 2.4 309 17.3 102000 74
2007-08-30 07:56:56 51°19.503 2°58.191 1.9 262 17.3 102000 74
2007-08-30 07:57:02 51°19.509 2°58.217 2.6 306 17.3 102000 74
2007-08-30 07:57:07 51°19.514 2°58.238 2.8 254 17.4 102000 75
2007-08-30 07:57:11 51°19.518 2°58.255 2.9 302 17.4 102000 75
2007-08-30 07:57:17 51°19.524 2°58.28 2.6 260 17.4 102000 75
2007-08-30 07:57:22 51°19.528 2°58.301 3.9 304 17.4 102000 75
2007-08-30 07:57:26 51°19.532 2°58.318 2.7 258 17.4 102000 75
2007-08-30 07:57:32 51°19.537 2°58.344 2.8 305 17.4 102000 75
2007-08-30 07:57:36 51°19.541 2°58.361 4.1 255 17.4 102000 76
2007-08-30 07:57:42 51°19.546 2°58.386 3.1 304 17.4 102000 76
2007-08-30 07:57:47 51°19.55 2°58.408 1.7 262 17.5 102000 75
2007-08-30 07:57:52 51°19.554 2°58.429 1.6 305 17.5 102000 75
2007-08-30 07:57:56 51°19.557 2°58.446 1.5 264 17.5 102000 76
2007-08-30 07:58:02 51°19.562 2°58.472 2.2 302 17.5 102000 76
2007-08-30 07:58:06 51°19.566 2°58.489 2 261 17.5 102000 76
2007-08-30 07:58:12 51°19.571 2°58.514 3.1 300 17.5 102000 76
2007-08-30 07:58:17 51°19.575 2°58.535 2.5 259 17.5 102000 75
2007-08-30 07:58:22 51°19.58 2°58.556 1.9 301 17.5 102000 75
2007-08-30 07:58:27 51°19.585 2°58.576 3.1 257 17.5 102000 75
2007-08-30 07:58:31 51°19.589 2°58.593 2.9 308 17.5 102000 75
2007-08-30 07:58:37 51°19.595 2°58.617 3.6 256 17.5 102000 75
2007-08-30 07:58:42 51°19.6 2°58.638 2.3 307 17.5 102000 75
2007-08-30 07:58:46 51°19.604 2°58.655 2 261 17.6 102000 75
2007-08-30 07:58:51 51°19.609 2°58.676 3.2 308 17.6 102000 75
2007-08-30 07:58:57 51°19.615 2°58.7 1.8 266 17.6 102000 75
2007-08-30 07:59:02 51°19.619 2°58.722 2.2 309 17.6 102000 75
2007-08-30 07:59:06 51°19.622 2°58.739 2 260 17.6 102000 75
2007-08-30 07:59:12 51°19.627 2°58.764 3 304 17.6 102000 75
2007-08-30 07:59:16 51°19.63 2°58.781 4 257 17.6 102000 75
2007-08-30 07:59:22 51°19.635 2°58.806 2.7 309 17.6 102000 75
2007-08-30 07:59:27 51°19.639 2°58.827 3.5 250 17.6 102000 75
2007-08-30 07:59:31 51°19.643 2°58.844 2.6 309 17.6 102000 75
2007-08-30 07:59:37 51°19.649 2°58.87 2.4 265 17.6 102000 75
2007-08-30 07:59:42 51°19.653 2°58.891 3.4 283 17.6 102000 75
2007-08-30 07:59:46 51°19.656 2°58.908 4 260 17.6 102000 75
2007-08-30 07:59:52 51°19.661 2°58.934 3.6 304 17.6 102000 75
2007-08-30 07:59:56 51°19.664 2°58.951 4.3 251 17.6 102000 75
2007-08-30 08:00:02 51°19.67 2°58.976 3.4 301 17.6 102000 75
2007-08-30 08:00:06 51°19.673 2°58.993 4.6 253 17.6 102000 75
2007-08-30 08:00:12 51°19.68 2°59.017 4.2 302 17.6 102000 75
2007-08-30 08:00:17 51°19.685 2°59.037 5 253 17.7 102000 75
2007-08-30 08:00:22 51°19.691 2°59.058 4.3 306 17.7 102000 75
2007-08-30 08:00:26 51°19.695 2°59.074 5.3 248 17.7 102000 75
2007-08-30 08:00:32 51°19.702 2°59.098 4.2 302 17.7 102000 75
2007-08-30 08:00:37 51°19.707 2°59.119 4.2 254 17.7 102000 75
2007-08-30 08:00:42 51°19.713 2°59.139 5.4 284 17.7 102000 75
2007-08-30 08:00:46 51°19.717 2°59.156 5.1 255 17.7 102000 75
2007-08-30 08:00:50 51°19.721 2°59.172 4.7 306 17.7 102000 75
2007-08-30 08:00:57 51°19.728 2°59.202 4.6 256 17.8 102000 74
2007-08-30 08:01:02 51°19.732 2°59.223 4.3 305 17.8 102000 74
2007-08-30 08:01:06 51°19.736 2°59.24 4.2 259 17.7 102000 74
2007-08-30 08:01:11 51°19.74 2°59.261 4.1 301 17.7 102000 74
2007-08-30 08:01:17 51°19.746 2°59.287 4.7 256 17.8 102000 74
2007-08-30 08:01:22 51°19.75 2°59.308 4.9 308 17.8 102000 74
2007-08-30 08:01:26 51°19.754 2°59.325 4.2 254 17.8 101990 73
2007-08-30 08:01:32 51°19.759 2°59.35 3.3 301 17.8 101990 73
2007-08-30 08:01:36 51°19.763 2°59.367 4.9 257 17.8 102000 73
2007-08-30 08:01:42 51°19.768 2°59.392 4.5 279 17.8 102000 73
2007-08-30 08:01:47 51°19.774 2°59.412 4.7 255 17.8 102000 73
2007-08-30 08:01:51 51°19.778 2°59.429 4.1 309 17.8 102000 73
2007-08-30 08:01:57 51°19.785 2°59.454 4.6 257 17.8 102000 73
2007-08-30 08:02:02 51°19.79 2°59.474 3.8 307 17.8 102000 73
2007-08-30 08:02:06 51°19.795 2°59.49 3.8 258 17.8 102000 73
2007-08-30 08:02:12 51°19.801 2°59.515 3.9 307 17.8 102000 73
2007-08-30 08:02:17 51°19.807 2°59.535 3.3 260 17.8 102000 73
2007-08-30 08:02:22 51°19.812 2°59.555 3.2 300 17.8 102000 73
2007-08-30 08:02:26 51°19.817 2°59.571 4.4 258 17.8 102000 72
2007-08-30 08:02:32 51°19.824 2°59.596 2.7 307 17.8 102000 72
2007-08-30 08:02:37 51°19.829 2°59.616 2.6 262 17.8 102000 72
2007-08-30 08:02:42 51°19.834 2°59.637 3.3 282 17.8 102000 72
2007-08-30 08:02:46 51°19.838 2°59.654 3.3 250 17.8 102000 72
2007-08-30 08:02:52 51°19.843 2°59.679 2.6 302 17.8 102000 72
2007-08-30 08:02:57 51°19.848 2°59.7 3.7 259 17.9 102000 72
2007-08-30 08:03:02 51°19.852 2°59.722 3.1 303 17.9 102000 72
2007-08-30 08:03:07 51°19.856 2°59.743 3.4 248 17.9 102000 72
2007-08-30 08:03:11 51°19.86 2°59.76 4.4 301 17.9 102000 72
2007-08-30 08:03:17 51°19.864 2°59.786 3 249 17.9 102010 73
2007-08-30 08:03:22 51°19.869 2°59.807 3.7 302 17.9 102010 73
2007-08-30 08:03:26 51°19.873 2°59.824 4.1 251 17.9 102000 73
2007-08-30 08:03:32 51°19.878 2°59.849 3.8 303 17.9 102000 73
2007-08-30 08:03:36 51°19.883 2°59.865 3.4 257 18 102000 73
2007-08-30 08:03:42 51°19.888 2°59.891 4.2 279 18 102000 73
2007-08-30 08:03:47 51°19.894 2°59.911 3.3 260 18 102000 73
2007-08-30 08:03:52 51°19.899 2°59.932 3.5 308 18 102000 73
2007-08-30 08:03:56 51°19.904 2°59.948 3.4 255 18 102000 72
2007-08-30 08:04:02 51°19.91 2°59.973 3 309 18 102000 72
2007-08-30 08:04:07 51°19.915 2°59.993 3.3 257 18 102000 72
2007-08-30 08:04:12 51°19.92 3°0.014 2.4 308 18 102000 72
2007-08-30 08:04:16 51°19.924 3°0.031 2.7 256 18 102000 72
2007-08-30 08:04:22 51°19.929 3°0.056 2.2 302 18 102000 72
2007-08-30 08:04:26 51°19.933 3°0.073 3.7 256 18 102000 72
2007-08-30 08:04:31 51°19.938 3°0.093 3.6 301 18 102000 72
2007-08-30 08:04:37 51°19.944 3°0.119 3.5 254 18 102000 71
2007-08-30 08:04:42 51°19.949 3°0.14 3.4 303 18 102000 71
2007-08-30 08:04:46 51°19.952 3°0.157 4.1 258 18 102000 71
2007-08-30 08:04:52 51°19.959 3°0.182 2.8 304 18 102000 71
2007-08-30 08:04:57 51°19.964 3°0.203 3.7 255 18 102000 71
2007-08-30 08:05:02 51°19.968 3°0.224 4.3 306 18 102000 71
2007-08-30 08:05:06 51°19.973 3°0.24 3.2 256 18 102000 72
2007-08-30 08:05:12 51°19.98 3°0.265 3.3 309 18 102000 72
2007-08-30 08:05:17 51°19.985 3°0.286 3 22 18.1 102000 72
2007-08-30 08:05:22 51°19.991 3°0.306 3.6 306 18.1 102000 72
2007-08-30 08:05:26 51°19.995 3°0.323 4.5 258 18 101990 71
2007-08-30 08:05:31 51°20.001 3°0.343 3.9 306 18 101990 71
2007-08-30 08:05:37 51°20.008 3°0.368 3.1 257 18 101990 71
2007-08-30 08:05:42 51°20.013 3°0.389 2.5 284 18 101990 71
2007-08-30 08:05:46 51°20.017 3°0.406 1.9 265 18 102000 71
2007-08-30 08:05:52 51°20.023 3°0.431 2.3 303 18 102000 71
2007-08-30 08:05:56 51°20.027 3°0.448 2.6 266 18 101990 71
2007-08-30 08:06:02 51°20.032 3°0.474 2.7 307 18 101990 71
2007-08-30 08:06:07 51°20.036 3°0.496 1.7 267 18 101990 70
2007-08-30 08:06:11 51°20.039 3°0.513 2.6 61 18 101990 70
2007-08-30 08:06:17 51°20.043 3°0.54 2.6 25 18 102000 70
2007-08-30 08:06:22 51°20.047 3°0.561 3 56 18 102000 70
2007-08-30 08:06:26 51°20.049 3°0.579 2.5 268 17.9 102000 69
2007-08-30 08:06:32 51°20.055 3°0.605 2.3 13 17.9 102000 69
2007-08-30 08:06:36 51°20.059 3°0.621 2.6 328 17.9 102000 69
2007-08-30 08:06:42 51°20.065 3°0.646 2.4 308 17.9 102000 69
2007-08-30 08:06:47 51°20.07 3°0.667 2.6 33 17.9 102000 69
2007-08-30 08:06:52 51°20.075 3°0.688 2 302 17.9 102000 69
2007-08-30 08:06:57 51°20.08 3°0.709 2.1 266 17.9 102000 69
2007-08-30 08:07:02 51°20.085 3°0.73 1.7 305 17.9 102000 69
2007-08-30 08:07:06 51°20.088 3°0.747 2.4 259 17.8 102000 69
2007-08-30 08:07:12 51°20.094 3°0.773 2 306 17.8 102000 69
2007-08-30 08:07:17 51°20.099 3°0.794 2.8 265 17.8 102000 69
2007-08-30 08:07:22 51°20.103 3°0.815 2 308 17.8 102000 69
2007-08-30 08:07:26 51°20.107 3°0.832 1.7 266 17.9 102000 69
2007-08-30 08:07:32 51°20.112 3°0.858 1.9 307 17.9 102000 69
2007-08-30 08:07:37 51°20.117 3°0.879 2.3 270 17.8 102000 70
2007-08-30 08:07:42 51°20.12 3°0.901 2.5 279 17.8 102000 70
2007-08-30 08:07:47 51°20.124 3°0.923 2.1 30 17.8 102000 70
2007-08-30 08:07:51 51°20.127 3°0.94 2.5 308 17.8 102000 70
2007-08-30 08:07:57 51°20.132 3°0.967 1.3 270 17.8 102000 70
2007-08-30 08:08:02 51°20.136 3°0.988 1.2 56 17.8 102000 70
2007-08-30 08:08:06 51°20.139 3°1.006 1.7 30 17.8 101990 70
2007-08-30 08:08:12 51°20.144 3°1.032 1.6 305 17.8 101990 70
2007-08-30 08:08:16 51°20.147 3°1.049 2.3 252 17.8 102000 70
2007-08-30 08:08:22 51°20.153 3°1.074 2.9 303 17.8 102000 70
2007-08-30 08:08:27 51°20.157 3°1.095 4.5 254 17.8 102000 70
2007-08-30 08:08:32 51°20.162 3°1.116 2.5 303 17.8 102000 70
2007-08-30 08:08:36 51°20.166 3°1.133 4.4 255 17.8 102000 70
2007-08-30 08:08:42 51°20.172 3°1.157 4.9 309 17.8 102000 70
2007-08-30 08:08:47 51°20.178 3°1.178 4.9 254 17.8 102000 71
2007-08-30 08:08:52 51°20.183 3°1.198 4.4 304 17.8 102000 71
2007-08-30 08:08:57 51°20.189 3°1.218 7 255 17.9 102000 71
2007-08-30 08:09:02 51°20.194 3°1.239 4.4 301 17.9 102000 71
2007-08-30 08:09:06 51°20.198 3°1.255 5.2 251 17.8 101990 71
2007-08-30 08:09:12 51°20.205 3°1.279 6 305 17.8 101990 71
2007-08-30 08:09:17 51°20.21 3°1.299 6.1 259 17.9 101990 72
2007-08-30 08:09:22 51°20.215 3°1.32 6.6 304 17.9 101990 72
2007-08-30 08:09:26 51°20.22 3°1.336 4 258 17.9 101990 72
2007-08-30 08:09:32 51°20.226 3°1.362 5.6 303 17.9 101990 72
2007-08-30 08:09:37 51°20.23 3°1.382 4.1 260 17.9 101990 72
2007-08-30 08:09:42 51°20.235 3°1.403 5.8 279 17.9 101990 72
2007-08-30 08:09:46 51°20.239 3°1.419 4.5 260 17.9 101990 71
2007-08-30 08:09:51 51°20.244 3°1.44 4.4 308 17.9 101990 71
2007-08-30 08:09:57 51°20.25 3°1.465 4.5 260 17.9 101990 71
2007-08-30 08:10:02 51°20.255 3°1.485 4.3 308 17.9 101990 71
2007-08-30 08:10:07 51°20.259 3°1.506 3.1 262 17.9 102000 71
2007-08-30 08:10:11 51°20.263 3°1.523 3 302 17.9 102000 71
2007-08-30 08:10:17 51°20.268 3°1.548 4.3 262 17.9 101990 71
2007-08-30 08:10:22 51°20.273 3°1.569 3.6 303 17.9 101990 71
2007-08-30 08:10:27 51°20.277 3°1.591 4.7 261 17.9 101990 71
2007-08-30 08:10:31 51°20.28 3°1.608 4.4 302 17.9 101990 71
2007-08-30 08:10:37 51°20.285 3°1.633 4.1 259 17.8 102000 71
2007-08-30 08:10:42 51°20.289 3°1.655 2.8 303 17.8 102000 71
2007-08-30 08:10:46 51°20.292 3°1.672 3.2 262 17.8 101990 71
2007-08-30 08:10:52 51°20.296 3°1.698 4 301 17.8 101990 71
2007-08-30 08:10:56 51°20.299 3°1.715 2.3 263 17.8 101990 71
2007-08-30 08:11:02 51°20.304 3°1.74 3.4 304 17.8 101990 71
2007-08-30 08:11:07 51°20.308 3°1.761 4.6 260 17.8 101990 71
2007-08-30 08:11:12 51°20.313 3°1.782 4.4 301 17.8 101990 71
2007-08-30 08:11:17 51°20.318 3°1.803 3.5 260 17.7 101990 70
2007-08-30 08:11:22 51°20.323 3°1.824 4.3 304 17.7 101990 70
2007-08-30 08:11:26 51°20.327 3°1.84 4.1 254 17.7 102000 70
2007-08-30 08:11:32 51°20.333 3°1.865 2.6 308 17.7 102000 70
2007-08-30 08:11:37 51°20.338 3°1.886 3.9 257 17.7 101990 70
2007-08-30 08:11:42 51°20.344 3°1.906 4.2 282 17.7 101990 70
2007-08-30 08:11:46 51°20.348 3°1.923 4.2 260 17.7 102000 70
2007-08-30 08:11:52 51°20.354 3°1.948 2.9 303 17.7 102000 70
2007-08-30 08:11:57 51°20.359 3°1.969 4 256 17.7 102000 71
2007-08-30 08:12:02 51°20.364 3°1.99 3.2 306 17.7 102000 71
2007-08-30 08:12:06 51°20.368 3°2.007 2.6 252 17.7 102000 71
2007-08-30 08:12:12 51°20.373 3°2.032 3 301 17.7 102000 71
2007-08-30 08:12:17 51°20.377 3°2.053 2.8 259 17.7 102000 71
2007-08-30 08:12:22 51°20.381 3°2.075 3.4 303 17.7 102000 71
2007-08-30 08:12:27 51°20.385 3°2.097 3.1 258 17.6 102000 71
2007-08-30 08:12:32 51°20.388 3°2.118 3.4 308 17.6 102000 71
2007-08-30 08:12:37 51°20.392 3°2.14 4.3 259 17.6 101990 71
2007-08-30 08:12:42 51°20.396 3°2.162 3.7 306 17.6 101990 71
2007-08-30 08:12:47 51°20.4 3°2.183 2.9 261 17.6 102000 71
2007-08-30 08:12:51 51°20.403 3°2.2 3.4 307 17.6 102000 71
2007-08-30 08:12:57 51°20.408 3°2.226 4.8 256 17.6 101990 71
2007-08-30 08:13:02 51°20.413 3°2.247 3.1 303 17.6 101990 71
2007-08-30 08:13:06 51°20.416 3°2.264 3.1 260 17.6 101990 71
2007-08-30 08:13:12 51°20.421 3°2.29 3.3 308 17.6 101990 71
2007-08-30 08:13:16 51°20.426 3°2.306 3 254 17.6 102000 71
2007-08-30 08:13:22 51°20.431 3°2.332 3.7 308 17.6 102000 71
2007-08-30 08:13:27 51°20.436 3°2.352 2.7 262 17.6 102000 71
2007-08-30 08:13:32 51°20.44 3°2.374 4.2 307 17.6 102000 71
2007-08-30 08:13:37 51°20.445 3°2.395 3.5 255 17.6 102000 70
2007-08-30 08:13:42 51°20.45 3°2.416 4.5 279 17.6 102000 70
2007-08-30 08:13:46 51°20.454 3°2.433 3.5 260 17.6 102000 71
2007-08-30 08:13:52 51°20.459 3°2.459 2.1 303 17.6 102000 71
2007-08-30 08:13:57 51°20.463 3°2.48 1.7 263 17.5 102000 71
2007-08-30 08:14:02 51°20.468 3°2.502 1.9 303 17.5 102000 71
2007-08-30 08:14:06 51°20.471 3°2.52 2.7 262 17.5 101990 71
2007-08-30 08:14:12 51°20.476 3°2.545 2.4 303 17.5 101990 71
2007-08-30 08:14:17 51°20.48 3°2.567 3.1 260 17.6 102000 71
2007-08-30 08:14:22 51°20.484 3°2.589 4.9 301 17.6 102000 71
2007-08-30 08:14:26 51°20.488 3°2.606 4.7 257 17.5 102000 71
2007-08-30 08:14:32 51°20.493 3°2.631 4 309 17.5 102000 71
2007-08-30 08:14:37 51°20.498 3°2.652 3.5 260 17.5 102000 71
2007-08-30 08:14:42 51°20.502 3°2.674 5.5 300 17.5 102000 71
2007-08-30 08:14:46 51°20.506 3°2.69 5.4 257 17.6 102000 72
2007-08-30 08:14:52 51°20.512 3°2.716 5.5 307 17.6 102000 72
2007-08-30 08:14:57 51°20.517 3°2.737 3.7 259 17.6 102000 72
2007-08-30 08:15:02 51°20.522 3°2.758 3 303 17.6 102000 72
2007-08-30 08:15:07 51°20.526 3°2.78 2.7 264 17.5 102000 71
2007-08-30 08:15:11 51°20.53 3°2.797 2.5 303 17.5 102000 71
2007-08-30 08:15:17 51°20.535 3°2.823 2.2 267 17.5 102000 71
2007-08-30 08:15:22 51°20.538 3°2.845 3.4 307 17.5 102000 71
2007-08-30 08:15:27 51°20.543 3°2.866 2.1 265 17.5 102000 71
2007-08-30 08:15:32 51°20.546 3°2.888 3.2 300 17.5 102000 71
2007-08-30 08:15:36 51°20.55 3°2.905 2.6 263 17.5 102000 71
2007-08-30 08:15:42 51°20.554 3°2.931 3 279 17.5 102000 71
2007-08-30 08:15:47 51°20.557 3°2.953 2.2 260 17.5 102000 71
2007-08-30 08:15:52 51°20.561 3°2.975 2.7 309 17.5 102000 71
2007-08-30 08:15:57 51°20.565 3°2.996 2.2 257 17.5 102000 72
2007-08-30 08:16:02 51°20.57 3°3.018 2.4 304 17.5 102000 72
2007-08-30 08:16:06 51°20.574 3°3.034 3.4 267 17.5 102000 72
2007-08-30 08:16:12 51°20.579 3°3.06 2.6 302 17.5 102000 72
2007-08-30 08:16:17 51°20.584 3°3.081 2.2 265 17.5 102000 72
2007-08-30 08:16:22 51°20.589 3°3.103 3.1 52 17.5 102000 72
2007-08-30 08:16:26 51°20.592 3°3.12 3.5 270 17.5 102000 72
2007-08-30 08:16:32 51°20.597 3°3.146 2.8 302 17.5 102000 72
2007-08-30 08:16:37 51°20.601 3°3.168 3.1 268 17.5 102000 72
2007-08-30 08:16:42 51°20.604 3°3.189 2.8 282 17.5 102000 72
2007-08-30 08:16:46 51°20.608 3°3.207 2 253 17.5 102000 72
2007-08-30 08:16:52 51°20.613 3°3.233 3.7 308 17.5 102000 72
2007-08-30 08:16:57 51°20.617 3°3.255 4.2 248 17.5 102000 73
2007-08-30 08:17:02 51°20.622 3°3.276 4.8 303 17.5 102000 73
2007-08-30 08:17:07 51°20.627 3°3.297 5.4 260 17.5 102000 73
2007-08-30 08:17:11 51°20.631 3°3.314 6.9 309 17.5 102000 73
2007-08-30 08:17:17 51°20.637 3°3.34 5.2 258 17.5 102000 73
2007-08-30 08:17:22 51°20.642 3°3.361 4.3 306 17.5 102000 73
2007-08-30 08:17:26 51°20.645 3°3.379 5.3 259 17.5 102000 74
2007-08-30 08:17:32 51°20.65 3°3.405 4.1 305 17.5 102000 74
2007-08-30 08:17:36 51°20.654 3°3.422 5.2 256 17.5 102000 73
2007-08-30 08:17:42 51°20.659 3°3.448 2.4 286 17.5 102000 73
2007-08-30 08:17:47 51°20.663 3°3.47 2.8 262 17.5 101990 73
2007-08-30 08:17:52 51°20.667 3°3.492 3.5 304 17.5 101990 73
2007-08-30 08:17:57 51°20.671 3°3.514 2.4 264 17.5 102000 73
2007-08-30 08:18:02 51°20.675 3°3.536 2.4 301 17.5 102000 73
2007-08-30 08:18:07 51°20.679 3°3.558 2.8 266 17.5 102000 73
2007-08-30 08:18:12 51°20.683 3°3.581 3.3 309 17.5 102000 73
2007-08-30 08:18:17 51°20.687 3°3.603 2.4 259 17.5 102000 73
2007-08-30 08:18:22 51°20.692 3°3.624 4.7 302 17.5 102000 73
2007-08-30 08:18:26 51°20.696 3°3.642 4.2 258 17.4 102000 73
2007-08-30 08:18:32 51°20.7 3°3.668 3.7 302 17.4 102000 73
2007-08-30 08:18:37 51°20.706 3°3.689 3.2 261 17.4 102000 73
2007-08-30 08:18:42 51°20.711 3°3.711 2.2 283 17.4 102000 73
2007-08-30 08:18:46 51°20.715 3°3.728 3.2 256 17.4 102000 73
2007-08-30 08:18:52 51°20.721 3°3.754 4.3 305 17.4 102000 73
2007-08-30 08:18:57 51°20.725 3°3.776 3.5 250 17.4 101990 73
2007-08-30 08:19:02 51°20.73 3°3.798 4.7 308 17.4 101990 73
2007-08-30 08:19:07 51°20.734 3°3.82 3.7 262 17.4 101990 72
2007-08-30 08:19:11 51°20.738 3°3.838 3.2 303 17.4 101990 72
2007-08-30 08:19:17 51°20.743 3°3.864 3.4 260 17.4 102000 73
2007-08-30 08:19:22 51°20.748 3°3.886 3.7 301 17.4 102000 73
2007-08-30 08:19:26 51°20.751 3°3.904 3.9 258 17.4 101990 73
2007-08-30 08:19:32 51°20.756 3°3.931 3.4 306 17.4 101990 73
2007-08-30 08:19:36 51°20.758 3°3.949 4.3 262 17.4 102000 74
2007-08-30 08:19:42 51°20.763 3°3.976 4.3 279 17.4 102000 74
2007-08-30 08:19:47 51°20.766 3°3.998 5.8 258 17.5 102000 74
2007-08-30 08:19:52 51°20.77 3°4.02 4.6 303 17.5 102000 74
2007-08-30 08:19:57 51°20.773 3°4.043 4.5 258 17.5 102000 74
2007-08-30 08:20:02 51°20.777 3°4.066 4.8 304 17.5 102000 74
2007-08-30 08:20:07 51°20.781 3°4.088 4 258 17.5 102000 75
2007-08-30 08:20:12 51°20.786 3°4.11 5.5 303 17.5 102000 75
2007-08-30 08:20:17 51°20.79 3°4.132 5.5 257 17.5 102000 74
2007-08-30 08:20:22 51°20.796 3°4.154 4.4 310 17.5 102000 74
2007-08-30 08:20:26 51°20.799 3°4.172 5.6 258 17.5 101990 74
2007-08-30 08:20:32 51°20.805 3°4.198 3.1 303 17.5 101990 74
2007-08-30 08:20:37 51°20.81 3°4.22 4.1 260 17.5 102000 74
2007-08-30 08:20:42 51°20.814 3°4.242 1.8 280 17.5 102000 74
2007-08-30 08:20:46 51°20.817 3°4.26 3.2 251 17.4 102000 74
2007-08-30 08:20:52 51°20.823 3°4.287 3.2 308 17.4 102000 74
2007-08-30 08:20:57 51°20.827 3°4.31 2.4 263 17.4 102000 74
2007-08-30 08:21:02 51°20.83 3°4.332 3.7 307 17.4 102000 74
2007-08-30 08:21:06 51°20.833 3°4.35 4.1 254 17.4 102000 74
2007-08-30 08:21:12 51°20.838 3°4.378 4.8 302 17.4 102000 74
2007-08-30 08:21:17 51°20.842 3°4.4 3.8 262 17.4 102000 74
2007-08-30 08:21:22 51°20.846 3°4.423 4.7 304 17.4 102000 74
2007-08-30 08:21:27 51°20.851 3°4.445 3.9 260 17.4 101990 74
2007-08-30 08:21:31 51°20.855 3°4.462 4.1 309 17.4 101990 74
2007-08-30 08:21:37 51°20.861 3°4.488 4.5 257 17.4 102000 75
2007-08-30 08:21:42 51°20.867 3°4.51 5 285 17.4 102000 75
2007-08-30 08:21:46 51°20.871 3°4.527 4.8 256 17.4 102000 74
2007-08-30 08:21:52 51°20.878 3°4.553 4.2 304 17.4 102000 74
2007-08-30 08:21:56 51°20.882 3°4.57 4 261 17.4 102000 74
2007-08-30 08:22:02 51°20.887 3°4.596 2.5 306 17.4 102000 74
2007-08-30 08:22:07 51°20.892 3°4.619 2.6 261 17.4 101990 74
2007-08-30 08:22:12 51°20.896 3°4.641 3.5 304 17.4 101990 74
2007-08-30 08:22:17 51°20.9 3°4.664 2.2 265 17.4 102000 74
2007-08-30 08:22:22 51°20.904 3°4.686 2.4 60 17.4 102000 74
2007-08-30 08:22:27 51°20.907 3°4.709 2.1 268 17.4 101990 74
2007-08-30 08:22:32 51°20.909 3°4.733 1.7 50 17.4 101990 74
2007-08-30 08:22:37 51°20.912 3°4.756 1.8 268 17.4 102000 74
2007-08-30 08:22:42 51°20.914 3°4.78 1.3 286 17.4 102000 74
2007-08-30 08:22:47 51°20.917 3°4.803 1.3 263 17.3 102000 74
2007-08-30 08:22:52 51°20.919 3°4.826 1.3 302 17.3 102000 74
2007-08-30 08:22:57 51°20.922 3°4.849 1.8 268 17.3 102000 74
2007-08-30 08:23:02 51°20.925 3°4.873 2.2 309 17.3 102000 74
2007-08-30 08:23:06 51°20.927 3°4.891 2.2 268 17.3 102000 74
2007-08-30 08:23:12 51°20.931 3°4.918 2 307 17.3 102000 74
2007-08-30 08:23:17 51°20.934 3°4.941 2.3 29 17.3 102000 74
2007-08-30 08:23:22 51°20.938 3°4.964 2 303 17.3 102000 74
2007-08-30 08:23:26 51°20.94 3°4.982 2 267 17.3 102000 74
2007-08-30 08:23:32 51°20.945 3°5.009 1.6 307 17.3 102000 74
2007-08-30 08:23:37 51°20.948 3°5.032 1.7 257 17.3 102000 74
2007-08-30 08:23:42 51°20.952 3°5.054 1.6 284 17.3 102000 74
2007-08-30 08:23:47 51°20.955 3°5.077 2.4 264 17.3 102000 74
2007-08-30 08:23:51 51°20.959 3°5.095 2.1 306 17.3 102000 74
2007-08-30 08:23:57 51°20.963 3°5.122 2.7 266 17.3 102000 74
2007-08-30 08:24:02 51°20.967 3°5.145 2.5 55 17.3 102000 74
2007-08-30 08:24:06 51°20.968 3°5.163 2.2 270 17.3 102000 75
2007-08-30 08:24:12 51°20.973 3°5.19 2 56 17.3 102000 75
2007-08-30 08:24:16 51°20.976 3°5.209 2.3 267 17.3 102000 75
2007-08-30 08:24:22 51°20.98 3°5.236 2 308 17.3 102000 75
2007-08-30 08:24:27 51°20.984 3°5.259 2.1 261 17.3 102000 75
2007-08-30 08:24:32 51°20.988 3°5.281 2 305 17.3 102000 75
2007-08-30 08:24:37 51°20.992 3°5.304 2 262 17.3 102000 74
2007-08-30 08:24:42 51°20.995 3°5.327 2.2 302 17.3 102000 74
2007-08-30 08:24:47 51°20.999 3°5.35 1.8 261 17.3 102000 74